Dewpoint
75 74 73 73 73 73 71 66 52 54 51 50 51 51 50 58 59 56 55 56 54 58 59 59 59 59 59 57 58 61 62 56 56 51 49 57 70 70 72 72 73 73 73 74 75 74 74 74 74 74 74 74 75 75 75 75 75 75 75 75 75 75 75 75 75 75 74 75 75 76 75 75 75 75 75 74 74 75 75 75 75 75 75 75 75 75 75 75 75 75 75 75 75 75 75 76 76
75 73 73 74 73 69 65 62 52 50 49 47 49 53 52 56 56 56 55 56 55 55 59 59 59 61 61 62 62 61 60 63 64 62 65 68 71 71 73 72 73 73 74 74 75 74 73 74 74 74 74 75 75 75 75 75 74 75 75 75 75 75 75 75 74 75 74 75 75 75 75 75 75 75 75 74 75 74 75 75 75 75 75 74 74 74 74 75 75 75 75 75 75 75 75 76 75
73 73 74 74 73 69 66 62 50 48 46 45 49 53 55 54 54 54 56 57 57 58 60 60 59 58 58 59 58 59 55 65 65 66 66 69 68 69 72 73 73 74 74 74 74 74 73 74 74 74 75 75 75 75 75 75 75 75 75 75 74 75 75 75 74 74 75 75 75 75 75 75 75 75 75 75 75 75 75 75 75 74 74 74 75 74 75 75 75 76 75 75 75 75 75 76 76
72 74 72 70 65 66 58 56 51 48 46 47 47 51 55 55 55 57 59 58 59 59 58 57 57 58 58 58 60 62 62 63 66 66 66 68 67 71 72 73 74 74 74 74 74 74 74 74 75 74 75 76 76 76 75 75 75 76 76 76 75 75 75 75 74 75 75 75 74 75 75 75 75 75 75 76 75 75 76 75 75 75 74 74 74 75 74 75 75 75 75 75 74 74 75 76 76
71 74 72 69 64 58 57 55 53 50 47 49 47 51 55 58 56 58 56 56 56 57 57 57 57 59 61 60 60 58 58 64 65 67 67 69 71 72 73 73 73 74 74 74 75 74 75 76 75 75 75 75 75 75 75 74 75 76 76 76 76 76 75 75 75 75 74 73 74 74 74 75 75 75 75 75 75 75 75 75 75 75 75 74 74 74 74 74 74 75 75 75 74 74 75 75 76
71 73 75 70 63 63 57 52 51 51 52 54 51 51 55 58 57 59 53 55 57 57 57 57 57 57 59 61 62 62 63 61 64 66 67 69 71 72 73 73 73 73 74 74 74 74 75 76 76 75 75 75 75 75 75 74 74 75 76 76 76 75 75 75 75 75 74 74 73 73 74 75 75 75 75 75 75 75 75 74 75 75 74 74 74 74 73 74 74 75 75 75 75 75 75 75 76
67 68 67 67 62 62 52 51 52 53 55 56 54 55 56 58 59 57 54 55 56 57 58 57 58 58 57 61 62 64 65 66 65 66 69 70 71 72 72 72 73 73 74 74 74 74 75 76 76 76 76 76 75 76 75 75 74 75 75 75 76 75 75 75 75 74 74 74 73 73 74 75 75 75 75 75 75 75 75 75 74 74 75 74 74 74 74 73 74 74 74 74 75 75 75 75 75
73 66 65 58 55 56 53 54 53 55 54 58 59 58 59 60 61 59 56 54 55 56 57 57 58 58 58 62 59 64 65 66 67 69 70 70 72 72 72 72 72 73 73 74 74 74 76 75 75 75 75 75 75 75 75 75 74 74 72 73 74 75 75 74 74 74 75 74 73 73 74 75 75 75 75 74 75 75 74 74 74 74 74 74 73 74 73 74 74 74 74 74 74 74 75 75 75
68 67 65 56 53 54 51 53 54 58 58 61 61 63 64 63 62 59 57 57 56 56 56 57 57 56 58 60 60 63 65 68 69 71 70 71 71 71 71 72 72 73 73 74 74 75 75 75 75 75 75 75 75 74 75 74 73 73 73 72 73 74 75 74 74 74 73 74 74 74 74 75 75 75 74 75 75 75 75 75 75 75 76 75 75 74 73 73 74 73 73 73 72 74 75 74 75
66 65 58 54 54 51 51 51 52 54 58 62 60 61 62 63 61 60 57 56 56 56 58 60 59 57 60 59 60 61 65 68 69 69 70 71 71 71 71 72 73 73 74 74 74 75 75 75 75 75 74 74 74 75 74 73 72 73 74 74 73 73 74 74 73 73 73 73 74 73 74 75 75 75 75 75 74 74 75 74 74 74 76 75 75 75 74 74 74 73 73 74 73 74 74 74 74
60 63 62 54 50 50 49 51 55 57 59 61 62 64 64 63 62 60 60 57 57 57 59 59 58 59 60 61 61 65 67 68 68 68 70 70 70 71 72 73 73 74 74 74 75 75 74 74 75 74 74 74 74 74 74 74 74 73 74 73 74 73 73 73 73 73 73 73 73 74 74 75 74 74 75 75 75 75 75 74 75 75 74 75 75 75 75 75 75 74 74 74 74 73 73 74 74
58 59 58 52 52 52 54 54 55 58 60 60 59 65 65 63 62 57 57 55 56 57 57 58 57 60 59 60 61 65 67 67 67 68 69 69 70 72 72 73 73 74 74 74 75 74 74 75 75 74 74 74 75 74 74 75 74 74 74 73 74 74 73 73 73 74 73 73 73 74 74 74 74 75 74 75 75 75 75 75 75 75 75 75 75 75 75 75 75 75 75 76 75 74 74 74 74
60 58 54 52 53 57 57 58 58 58 58 58 59 64 65 63 60 58 58 56 57 56 55 57 59 60 58 60 63 64 65 65 66 67 69 70 71 72 73 73 73 74 74 74 74 74 73 73 74 74 74 74 73 75 74 74 74 74 74 74 74 74 73 73 74 74 74 74 75 74 74 74 74 75 75 74 75 75 75 75 75 75 75 75 75 75 75 75 76 75 75 75 75 75 75 75 75
60 60 55 49 57 57 57 57 56 56 54 57 62 66 67 64 64 59 57 56 56 56 57 60 60 60 60 61 62 63 64 65 66 68 70 71 72 73 73 73 73 73 74 73 74 74 73 73 73 74 74 74 74 73 74 74 74 74 73 73 74 73 74 74 74 74 74 74 75 75 75 75 75 75 75 75 75 75 75 75 74 75 75 75 75 75 75 75 75 75 75 75 74 74 75 75 74
60 62 56 53 53 55 56 54 53 56 54 59 61 65 64 66 62 60 58 55 56 58 60 61 61 57 56 59 59 62 63 65 67 70 71 71 72 72 72 73 73 73 73 73 73 73 73 74 74 73 74 73 73 73 72 73 73 74 73 73 74 73 74 74 74 74 74 75 75 75 75 74 74 74 74 75 75 75 75 74 74 75 75 75 75 75 75 75 75 75 75 75 75 74 74 74 73
63 59 56 52 51 52 53 55 57 55 54 62 61 65 62 63 64 58 60 58 56 59 59 58 61 57 59 58 59 63 64 66 68 70 70 71 71 72 72 72 72 72 72 73 73 73 73 73 73 73 73 73 73 72 72 72 74 73 73 73 74 74 74 73 73 74 74 75 75 75 75 75 75 75 75 74 75 75 75 75 75 75 75 75 75 75 75 75 75 75 74 74 74 74 74 74 73
62 59 54 50 48 53 53 54 55 50 54 60 63 61 60 60 64 63 64 58 57 57 58 59 59 61 60 60 62 63 65 67 70 69 70 70 70 70 71 71 71 71 72 72 73 73 73 73 73 73 73 72 73 72 72 72 73 73 73 73 73 73 74 73 74 74 74 74 75 75 76 74 74 75 75 74 75 76 75 75 75 75 75 75 76 75 75 75 75 74 74 74 74 74 76 77 76
60 55 51 48 49 52 55 54 55 55 54 55 59 63 60 58 60 61 57 56 59 57 57 60 62 62 62 62 63 64 66 67 68 68 69 69 70 69 69 70 71 70 71 72 73 73 73 73 73 73 72 72 72 72 72 73 73 73 71 73 73 74 73 73 73 75 76 75 74 74 74 75 74 74 76 77 76 76 76 75 75 76 76 76 76 75 75 75 74 74 74 73 73 76 77 75 75
58 53 51 50 51 53 58 57 57 54 53 58 61 65 62 59 59 60 56 56 56 55 57 60 61 62 62 63 64 65 66 66 67 68 68 69 69 68 68 69 70 70 71 71 72 73 73 73 73 73 73 72 72 72 72 73 71 71 71 72 73 73 74 74 74 74 74 74 74 74 74 74 74 75 75 75 77 75 76 76 76 76 76 76 76 75 75 74 75 75 74 75 77 77 75 75 75
59 53 50 51 53 55 59 60 59 59 59 60 62 64 62 62 62 64 56 56 56 55 57 59 60 61 61 63 64 65 65 66 67 67 67 68 69 69 68 68 69 69 70 71 71 73 73 73 73 73 73 72 71 71 71 72 71 71 72 72 72 73 73 73 73 73 73 73 73 73 74 74 74 74 75 76 76 75 76 76 75 75 75 76 76 77 78 77 77 77 77 77 77 76 75 75 75
57 54 51 51 54 53 55 61 61 61 62 62 61 63 61 62 63 59 57 55 55 55 57 58 60 61 62 63 64 64 65 65 66 67 67 68 68 69 69 69 69 69 70 71 72 72 72 72 73 73 73 72 71 72 71 71 70 71 71 71 72 72 73 73 73 73 73 73 73 73 74 74 74 74 74 74 74 74 74 74 74 75 75 75 77 74 75 75 75 74 74 75 75 76 75 75 75
56 54 54 53 58 53 58 62 62 62 64 62 61 59 59 62 62 58 56 54 54 54 56 58 61 62 62 63 64 64 65 65 66 66 66 67 68 68 69 69 69 70 71 71 71 71 72 73 73 73 72 72 72 71 71 72 70 69 69 71 71 72 72 72 73 73 73 73 74 74 74 73 74 74 74 74 74 74 74 74 74 74 74 74 76 75 74 74 74 74 74 74 74 75 74 75 75
47 49 54 54 58 52 61 63 64 64 62 60 59 60 62 61 60 62 57 55 56 58 56 59 61 62 63 64 64 64 65 65 65 66 66 67 67 68 68 69 69 69 71 70 71 71 72 72 72 72 72 72 72 71 72 72 71 70 71 72 72 72 72 72 73 73 73 74 74 74 73 73 73 73 73 73 73 74 74 74 74 74 74 74 75 74 74 74 74 74 74 74 74 74 73 74 75
45 42 57 57 59 56 62 64 64 63 61 60 62 63 61 60 58 61 59 60 62 59 57 61 62 63 63 63 64 64 65 65 65 66 66 66 67 67 68 68 69 70 71 71 71 71 72 72 72 72 72 71 71 71 72 71 72 71 72 73 73 73 72 72 72 73 73 74 74 75 74 74 74 73 73 73 73 74 74 74 74 73 73 74 75 75 74 73 74 74 74 73 73 73 72 72 73
47 44 57 60 64 64 65 65 64 64 64 64 63 61 62 62 60 61 58 61 63 56 60 61 62 62 63 63 64 64 65 65 65 66 66 67 67 68 68 68 69 70 70 70 71 71 72 72 72 72 72 71 71 71 71 72 72 72 73 73 72 73 72 72 73 73 73 74 75 75 75 74 74 73 73 74 74 74 74 74 74 73 73 73 74 73 74 74 73 73 73 73 73 73 72 72 72
40 46 62 63 63 64 64 63 64 64 64 64 62 61 62 62 64 61 62 63 63 59 60 61 62 62 63 63 64 64 64 65 65 66 66 66 67 67 67 68 69 69 70 70 71 71 72 72 71 71 71 71 71 72 71 71 72 72 72 72 73 74 73 73 73 73 73 74 74 75 75 74 74 74 73 73 73 73 74 73 73 73 72 73 73 73 74 74 73 73 73 73 72 73 72 72 74
61 62 63 62 63 63 63 62 62 63 63 63 61 60 61 62 61 57 61 63 64 60 60 61 61 62 62 63 63 64 64 65 65 65 66 66 66 66 67 67 68 69 70 70 71 71 72 72 71 71 72 72 71 71 71 71 72 72 72 73 73 73 73 73 73 73 73 73 74 74 75 75 74 73 73 72 72 72 72 72 73 73 72 72 72 72 73 73 73 73 73 72 72 72 72 72 72
61 61 60 61 62 62 63 62 62 62 61 63 61 60 61 62 61 59 62 63 64 60 60 61 61 62 62 63 63 64 64 65 65 65 65 65 65 66 66 67 68 69 70 70 71 71 71 71 71 71 71 71 71 70 71 71 71 72 72 73 73 73 73 73 73 73 73 73 74 74 74 74 75 73 72 72 73 72 72 71 72 72 72 72 72 72 72 73 73 73 73 73 73 72 72 72 73
60 60 57 59 60 59 61 61 63 62 60 63 62 57 57 59 59 62 63 63 63 59 60 61 61 61 62 62 63 64 64 64 64 64 64 65 65 66 66 67 68 69 70 70 71 71 71 71 70 71 72 71 71 70 70 71 71 72 72 73 72 73 73 73 73 73 73 73 74 74 74 74 75 73 72 72 73 71 71 71 71 72 72 72 72 73 74 74 74 74 74 75 74 74 73 72 72
60 59 58 56 55 55 58 63 62 61 61 63 60 51 53 55 59 62 64 63 64 58 60 60 61 61 62 62 62 63 63 63 63 63 64 64 65 66 66 67 68 69 70 70 71 71 71 71 71 71 72 71 71 70 70 71 72 72 72 72 73 73 73 73 73 73 73 73 73 73 73 74 74 73 72 71 71 71 71 71 71 71 72 72 74 75 74 74 74 73 74 73 75 73 71 71 69
56 58 55 53 51 51 56 61 61 59 62 62 57 50 50 53 57 63 64 64 64 56 59 60 60 60 61 61 62 62 62 63 63 63 63 64 65 66 66 67 68 69 70 70 70 71 71 71 71 71 71 71 71 71 70 70 71 71 72 72 72 72 73 72 73 73 73 73 73 73 73 73 74 73 72 72 71 71 71 71 71 71 72 73 74 74 74 74 74 73 75 72 71 69 68 74 67
53 51 48 49 50 50 55 62 60 56 60 63 57 50 54 55 57 63 64 63 63 59 57 58 59 59 59 60 60 60 61 61 63 63 63 64 65 65 66 66 68 69 69 70 71 71 70 71 72 71 71 71 71 71 70 71 71 71 72 72 72 72 72 72 72 73 73 72 73 72 72 73 73 73 72 72 71 71 71 71 72 72 72 74 74 74 75 74 74 74 75 73 72 67 68 66 67
44 45 43 47 49 52 54 56 61 61 61 61 57 53 55 55 58 62 64 63 63 63 57 56 57 57 57 57 57 58 59 59 62 62 63 64 65 65 66 66 68 69 69 70 70 70 70 71 72 71 71 70 71 71 70 71 71 71 72 72 71 72 71 72 72 72 72 72 72 72 72 72 73 72 72 72 72 72 72 72 72 72 74 75 75 74 73 75 74 72 74 75 71 68 66 64 66
41 46 42 45 49 50 50 54 59 61 60 58 60 57 57 57 58 61 63 63 62 63 60 57 55 55 55 55 55 56 57 59 61 62 63 64 65 66 66 68 68 69 69 70 70 70 70 71 71 71 71 71 71 70 70 70 70 71 72 72 72 71 71 72 72 72 71 71 71 72 72 73 74 73 72 72 72 73 74 73 72 72 75 75 75 73 73 75 75 74 73 73 71 69 69 66 65
34 42 45 46 50 52 50 51 53 57 57 56 55 57 57 57 59 61 62 63 62 63 60 59 55 55 55 54 55 56 57 59 61 62 63 65 65 66 66 68 68 68 69 69 70 71 71 71 71 71 71 71 71 70 70 70 71 72 71 71 71 70 71 71 71 71 71 71 71 71 72 73 74 73 73 73 74 74 74 73 72 73 75 74 73 73 73 75 75 74 75 74 73 70 70 71 70
35 44 46 47 46 47 49 52 58 57 54 53 54 51 54 57 59 61 62 63 63 63 60 61 60 57 57 56 57 57 58 60 63 63 64 64 65 66 66 67 68 68 69 69 71 71 71 71 71 71 71 71 70 70 71 70 71 71 70 70 70 70 70 71 71 71 71 71 71 72 72 72 72 74 74 74 74 75 74 72 71 74 75 73 72 71 72 73 75 75 74 77 70 70 71 70 70
47 50 50 48 48 49 53 56 58 57 52 51 54 54 55 57 58 61 62 62 62 61 59 61 60 59 58 59 59 59 60 61 64 63 64 65 65 66 66 67 67 68 69 70 70 70 71 71 71 71 71 71 70 70 70 70 69 69 69 69 68 69 69 70 70 70 71 71 71 71 72 72 72 73 75 75 75 75 75 72 72 72 74 75 75 73 73 76 77 75 74 75 73 70 67 69 69
31 48 48 47 49 47 51 55 58 59 52 49 53 54 54 58 60 60 62 61 60 60 60 61 60 59 59 59 59 59 61 65 64 63 64 65 65 66 66 67 68 67 68 69 69 70 71 71 71 71 71 71 71 70 70 70 70 69 68 68 68 69 70 70 70 70 70 70 72 72 73 73 73 74 76 75 76 74 72 72 72 72 75 75 76 77 77 76 74 74 73 72 71 70 68 68 66
37 38 48 46 48 50 53 56 58 58 53 48 52 50 51 55 59 59 61 61 62 61 61 62 61 60 59 59 59 60 62 63 63 63 64 64 65 66 66 66 67 67 68 69 69 70 70 71 71 71 71 71 71 71 70 70 70 70 69 69 69 69 69 71 70 71 71 70 71 72 73 74 74 75 75 77 75 74 72 72 72 73 74 77 73 73 74 73 73 73 74 72 71 69 73 71 69
16 47 42 35 48 48 44 51 56 57 52 49 52 49 51 54 56 58 62 63 62 61 61 62 63 59 59 59 59 60 61 62 61 62 62 63 64 65 66 66 66 67 68 68 69 69 70 71 70 70 71 71 71 71 71 70 70 70 70 70 69 69 69 71 71 71 71 70 70 72 74 74 74 74 75 74 76 74 72 71 72 74 74 76 74 73 74 73 74 73 73 75 70 68 67 67 72
12 41 41 46 51 51 47 49 55 54 54 54 49 46 47 49 53 54 59 65 63 62 62 63 62 61 60 60 60 60 60 60 60 61 62 62 64 65 65 66 66 67 68 68 68 69 69 70 70 70 71 71 71 72 71 70 71 70 70 70 70 70 71 70 69 69 70 71 71 72 73 74 74 75 75 75 77 74 72 71 73 74 74 76 74 74 74 74 75 74 73 76 71 69 67 69 70
6 26 32 30 48 52 54 54 51 46 46 50 48 40 41 46 51 53 56 59 59 63 62 61 60 59 59 59 59 60 60 60 60 60 61 62 63 64 65 65 66 67 67 68 68 68 69 69 70 70 70 70 71 72 71 70 71 69 68 68 67 67 67 68 67 67 68 70 70 72 73 74 74 74 74 74 75 75 72 72 73 73 74 76 76 74 75 74 74 74 74 74 72 71 70 69 67
15 17 34 39 52 53 54 52 48 43 41 47 49 41 38 44 47 52 56 57 56 60 60 60 59 59 59 59 59 59 60 60 60 61 61 61 63 64 64 65 66 66 67 68 68 68 69 69 70 70 70 70 70 71 70 71 70 69 68 67 67 67 67 67 68 69 69 70 71 72 73 74 74 74 74 74 74 76 73 73 73 73 74 74 77 74 74 73 73 74 77 74 74 75 71 69 68
22 24 47 53 53 53 53 51 48 45 49 52 52 45 41 41 46 50 55 55 55 55 57 60 60 59 59 58 59 59 59 59 59 60 61 61 63 63 64 64 65 66 67 67 67 68 68 69 70 70 70 71 70 71 70 70 69 69 68 68 68 67 67 67 68 69 70 72 71 72 72 73 74 74 74 73 74 75 75 74 73 73 74 73 78 74 74 75 76 75 76 75 77 76 72 71 69
15 52 53 53 53 53 51 50 49 49 47 43 46 50 41 42 45 53 54 53 53 53 54 57 60 60 59 59 59 59 59 59 59 60 60 61 62 63 64 64 65 66 66 66 67 68 68 69 70 70 70 71 70 71 70 70 71 69 68 68 68 68 68 68 70 71 71 73 71 72 72 72 73 74 73 73 73 74 77 75 73 73 73 73 78 75 74 75 74 74 74 73 74 75 75 72 71
53 54 54 53 52 51 51 50 49 45 40 38 44 49 41 42 45 51 52 51 51 51 52 53 59 60 59 59 59 59 59 59 59 60 60 61 62 63 63 64 65 65 66 67 67 67 68 69 69 70 70 70 70 70 71 70 70 70 68 68 68 68 69 69 70 70 70 72 71 71 72 72 72 73 73 73 73 73 75 76 73 73 73 72 77 74 74 74 75 75 75 73 74 74 75 73 71
54 51 50 48 47 47 49 46 46 42 37 39 42 49 42 37 45 50 49 50 50 50 52 56 56 60 60 59 58 59 59 58 59 60 61 60 61 62 63 64 64 65 66 66 67 67 68 68 69 69 69 70 70 70 70 70 70 69 68 68 68 68 68 69 69 69 70 71 71 71 71 72 72 72 72 73 72 73 74 77 74 73 73 77 78 74 74 73 72 74 75 76 75 75 75 74 76
47 45 47 45 43 43 42 39 43 38 36 39 40 50 45 37 42 49 52 53 56 52 50 51 54 58 60 59 59 59 59 58 58 60 60 60 61 62 63 64 64 65 65 66 66 67 68 68 69 69 69 70 70 70 70 70 70 69 68 68 68 68 69 68 68 69 69 70 71 71 71 71 71 72 72 72 72 72 75 76 77 75 76 76 76 74 73 73 74 74 74 74 76 75 76 76 74
45 43 37 34 29 38 38 35 37 37 36 38 48 49 46 46 45 49 51 52 53 55 53 51 53 56 59 60 59 59 60 59 59 60 61 60 61 62 62 63 64 65 65 66 66 67 68 68 69 68 69 69 70 70 70 70 70 70 68 68 68 69 69 69 69 69 69 70 71 71 71 71 71 71 71 71 71 72 74 75 75 75 76 77 76 74 74 74 75 74 73 73 75 75 75 76 74
42 40 32 34 32 27 30 29 31 29 31 41 48 49 43 46 47 53 54 56 57 57 55 54 53 55 57 60 60 60 60 59 58 59 61 61 61 61 63 63 64 64 64 65 66 67 68 68 69 68 68 69 70 70 70 70 70 70 69 68 68 69 69 69 69 68 69 70 71 71 71 70 71 71 71 71 72 72 74 75 76 75 75 76 76 75 74 75 75 74 74 73 72 74 75 76 75
23 26 30 30 35 31 27 26 28 29 31 41 48 42 41 40 44 53 56 57 59 59 57 56 55 55 57 58 60 60 59 59 59 59 60 61 61 61 62 63 63 64 64 65 66 67 68 68 68 69 68 69 69 70 70 70 70 70 70 69 69 69 69 69 69 69 69 70 70 70 71 71 71 71 71 72 73 73 74 75 75 75 75 75 76 76 75 75 76 76 75 74 75 75 75 75 75
12 25 18 17 21 31 18 23 30 33 41 41 44 42 43 43 48 56 58 58 58 60 59 60 57 58 57 57 58 60 60 60 59 59 61 62 61 61 62 63 63 64 65 65 66 67 67 68 68 68 68 68 69 70 70 70 70 70 70 69 69 70 71 70 70 71 70 70 70 71 71 71 71 71 72 72 73 73 73 74 75 75 75 75 76 76 76 75 75 75 75 76 75 77 76 76 75
16 13 17 17 19 24 35 38 34 35 22 29 41 42 43 45 48 51 57 56 57 60 60 60 60 59 58 57 58 59 60 60 59 60 60 61 62 61 61 62 63 64 64 65 66 67 67 68 68 68 68 68 69 70 70 70 70 70 71 70 69 70 70 70 69 70 69 70 71 71 70 70 71 72 71 73 72 74 73 74 74 75 75 75 76 76 76 75 75 75 75 74 74 75 78 76 75
26 25 22 23 27 25 19 13 21 25 19 22 37 39 40 38 40 52 56 56 56 59 60 60 61 60 58 58 59 60 60 60 60 60 61 61 62 62 61 62 63 64 64 64 66 67 67 68 68 68 68 68 68 69 70 70 70 70 70 70 70 70 70 70 70 70 70 70 71 71 71 71 71 71 72 72 73 73 73 75 74 74 75 76 76 76 76 76 76 75 75 76 75 76 76 76 76
28 27 33 23 20 16 20 19 13 14 15 21 27 39 43 41 43 52 54 55 56 59 60 60 61 61 61 60 61 61 61 61 60 60 61 61 62 62 62 62 62 63 65 65 65 66 67 67 68 68 68 68 68 69 69 70 70 69 70 71 70 71 71 71 71 72 71 70 70 71 70 71 71 72 74 73 73 73 73 74 74 74 75 76 76 76 77 77 76 76 75 75 76 76 76 75 75
31 37 35 35 21 23 24 19 23 20 18 20 19 36 37 48 50 53 54 55 57 60 60 60 61 61 61 61 61 62 61 60 61 61 61 62 62 63 63 62 62 63 63 64 65 66 66 67 68 68 68 68 68 68 70 69 69 69 69 71 71 71 72 71 71 72 71 71 71 70 71 70 71 72 72 73 73 73 73 72 73 73 73 74 75 76 76 76 76 76 75 75 75 76 75 75 75
28 35 35 36 38 36 28 33 31 28 25 22 24 23 31 42 49 55 55 56 58 60 60 61 62 62 62 63 62 62 63 61 61 61 61 62 62 63 64 63 63 63 64 64 65 66 66 67 67 68 68 68 68 68 69 69 70 69 70 69 70 70 71 71 71 71 71 71 71 72 71 71 72 72 72 72 72 73 73 73 72 74 73 74 75 75 76 76 76 76 76 76 75 75 75 75 75
32 36 36 37 36 27 23 24 32 36 32 28 26 26 31 38 55 57 56 57 60 61 61 61 62 63 63 63 63 64 63 64 64 62 62 62 63 63 63 64 65 64 64 64 65 66 66 67 67 67 68 69 69 68 69 69 70 69 69 69 69 70 71 71 71 71 71 71 71 72 72 72 71 72 72 72 72 72 73 72 72 73 74 73 74 75 75 76 75 75 75 74 74 75 75 75 75